SCP
0 0 0 0 0 0 0 0 0 0 0 0 1 2 2 3 2 3 4 4 3 4 4 4 5 5 6 6 7 7 7 7 7 5 4 3 2 1 1 1 1 0 0 0
0 0 0 0 0 0 0 0 0 0 0 0 1 1 2 3 2 2 3 3 4 4 4 4 5 6 6 7 7 7 7 7 6 4 3 2 2 1 1 1 1 0 0 0
0 0 0 0 0 0 0 0 0 0 0 0 1 1 2 2 2 2 3 3 4 4 4 4 5 5 6 6 6 6 6 6 5 4 2 2 1 1 1 1 1 0 0 0
0 0 0 0 0 0 0 0 0 0 0 0 0 1 2 2 2 2 2 3 3 4 4 4 4 4 4 4 4 5 5 6 5 3 2 1 1 1 1 1 1 0 0 0
0 0 0 0 0 0 0 0 0 0 0 1 1 1 1 2 1 1 2 2 3 4 5 4 3 3 3 3 4 5 5 5 4 3 2 1 1 1 1 1 1 1 0 0
0 0 0 0 0 0 0 0 0 1 1 1 1 1 1 1 1 1 1 2 2 4 4 3 3 2 2 3 4 5 6 5 4 2 2 1 1 1 1 1 1 1 1 0
0 0 0 0 0 0 0 0 1 1 1 1 1 1 1 1 1 1 1 1 2 2 3 3 3 3 3 3 4 5 5 5 3 2 2 2 1 1 1 1 1 1 1 0
0 0 0 0 0 0 0 0 1 1 1 1 1 1 1 1 0 1 1 1 1 1 2 2 3 3 4 4 4 5 5 4 3 2 2 2 2 1 1 1 1 1 0 1
0 0 0 0 0 0 0 0 0 1 0 0 1 1 1 1 0 0 1 1 1 1 1 2 3 4 4 4 4 5 5 4 3 2 2 2 2 1 1 1 1 0 1 1
0 0 0 0 0 0 0 0 0 0 0 0 0 1 1 1 0 0 1 1 1 1 1 1 2 3 3 4 4 5 5 4 3 3 2 2 2 1 1 1 1 1 1 1
0 0 0 0 1 1 0 0 0 0 0 0 0 1 1 1 1 0 1 1 1 1 1 1 2 2 3 3 3 4 5 5 4 3 3 3 2 2 2 2 2 2 2 2
0 0 1 1 1 1 1 1 0 0 1 1 1 1 1 1 1 1 1 1 1 1 1 1 2 2 3 3 3 4 5 5 4 4 3 3 3 2 2 2 3 3 3 3
1 1 1 1 1 1 1 1 1 1 1 1 1 1 2 2 1 1 1 1 2 2 2 3 3 3 3 3 4 4 5 5 4 4 3 4 4 3 3 3 3 3 4 4
1 1 1 1 1 1 1 1 1 1 1 1 1 1 2 2 1 1 2 2 3 3 3 4 4 5 5 5 5 5 5 5 4 4 4 4 5 4 4 4 4 4 4 4
1 1 1 1 1 1 1 1 1 1 1 1 1 2 2 2 2 2 2 3 4 4 4 4 5 7 7 7 7 6 6 6 5 5 5 6 6 5 5 5 5 5 5 4
1 2 1 1 1 1 1 1 1 1 1 1 1 2 3 4 3 3 3 3 4 5 5 6 8 9 9 9 9 8 7 7 6 6 6 7 7 6 5 5 5 6 6 5
2 2 2 1 1 1 1 1 1 1 1 1 2 4 5 5 4 4 4 4 5 5 6 8 9 10 9 9 9 8 7 6 6 6 6 6 5 5 5 5 5 6 6 6
2 2 2 2 1 1 1 1 1 1 1 2 4 5 5 5 5 4 5 5 6 6 6 6 7 7 7 7 7 7 7 7 6 5 4 4 4 3 4 4 5 5 6 6
2 2 2 2 1 1 1 1 2 2 2 3 5 5 6 5 4 4 4 5 5 5 5 4 4 4 5 5 6 7 7 6 5 4 3 3 3 3 3 3 4 5 5 6
2 2 2 2 1 1 1 1 2 2 3 4 5 5 5 4 3 3 3 3 3 3 3 3 3 3 3 4 4 4 4 4 3 2 2 2 2 3 3 3 3 4 4 4
3 2 2 2 1 1 2 2 2 2 3 3 4 4 4 3 3 3 2 2 2 2 2 2 2 2 2 2 2 2 1 1 1 1 1 1 2 2 3 3 3 3 4 4
3 3 3 2 2 2 3 2 2 2 3 3 4 4 4 4 4 3 2 2 1 1 1 1 1 1 1 1 1 1 1 1 1 1 1 1 1 2 2 3 3 3 3 4
2 3 3 3 3 3 3 3 2 2 3 4 4 4 4 4 4 3 2 1 1 1 1 1 1 1 1 0 0 0 0 0 0 0 1 1 1 1 1 1 2 2 2 3
1 2 3 3 3 3 3 2 2 2 3 4 4 4 4 4 3 2 1 1 1 0 0 0 0 0 0 0 0 0 0 0 0 0 0 0 0 0 0 0 1 1 1 1
1 1 2 3 2 2 2 2 2 3 3 3 3 4 4 3 2 1 1 0 0 0 0 0 0 0 0 0 0 0 0 0 0 0 0 0 0 0 0 0 0 0 0 0
0 1 1 2 2 1 1 2 2 3 3 3 3 3 3 2 1 1 0 0 0 0 0 0 0 0 0 0 0 0 0 0 0 0 0 0 0 0 0 0 0 0 0 0
Wind_Speed
16 15 14 12 9 10 12 14 13 9 7 6 7 1 6 4 5 8 8 9 8 7 9 9 9 10 11 10 9 8 9 8 6 4 4 4 4 3 4 5 5 4 3 3
16 17 17 13 10 12 13 14 12 9 7 7 6 1 6 5 3 6 9 9 10 10 10 10 10 9 11 10 10 9 9 8 6 4 3 3 3 3 3 4 4 4 3 2
20 16 11 10 12 14 13 11 11 11 12 9 7 2 5 6 6 7 9 10 11 12 13 12 11 10 11 11 11 10 9 9 7 6 4 3 3 2 4 5 4 4 3 2
18 17 14 12 12 14 13 11 13 14 12 8 7 2 4 5 7 9 10 10 11 12 12 12 12 12 12 11 10 9 9 9 7 6 5 6 5 4 4 4 5 4 3 3
19 17 15 13 13 13 13 14 14 12 9 9 10 5 4 5 6 8 10 11 12 12 13 13 13 13 12 13 11 10 9 8 7 6 5 5 4 3 3 4 6 5 5 4
21 19 16 15 14 13 12 14 12 6 4 4 10 7 3 5 7 10 11 11 12 13 13 13 12 11 11 12 12 11 10 8 8 7 6 6 4 3 4 4 6 5 5 5
21 21 19 17 17 14 10 11 9 6 0 5 9 4 3 5 7 10 12 12 12 13 13 13 13 12 12 13 12 12 11 9 9 9 7 7 5 4 4 4 5 5 4 5
19 16 16 15 15 13 10 11 9 10 9 4 1 1 3 6 8 10 13 13 13 13 13 14 13 12 12 13 13 13 13 11 10 10 8 7 7 5 4 6 4 5 3 4
19 16 12 12 13 12 11 9 9 10 12 7 1 1 3 4 7 9 12 13 13 13 13 14 13 13 12 13 13 13 13 12 11 11 9 8 7 7 5 5 6 4 3 4
21 17 15 11 10 11 10 10 8 8 8 8 2 3 1 1 2 7 9 11 12 13 13 14 14 14 13 13 12 12 12 12 11 10 10 10 9 8 6 5 6 5 4 4
21 19 18 14 10 10 8 10 8 7 7 7 2 2 6 7 7 7 9 11 11 12 13 13 13 14 13 13 12 12 12 11 11 10 10 8 9 9 8 7 6 5 5 5
18 16 15 14 7 6 8 10 10 8 7 8 5 3 3 4 4 6 9 10 11 11 11 12 13 13 12 12 12 12 11 11 11 10 9 9 8 8 8 8 8 7 6 7
12 12 14 14 8 2 6 11 12 9 7 7 5 3 1 3 4 4 7 8 8 8 8 9 9 10 10 10 11 12 12 12 12 11 10 9 9 8 8 7 7 8 7 7
9 11 14 15 6 5 8 17 15 10 8 6 3 4 4 3 2 2 6 6 7 6 7 7 7 6 6 7 7 8 9 9 10 9 9 8 8 7 7 7 7 7 7 8
8 13 16 15 9 10 12 16 15 12 10 8 4 7 10 7 6 5 7 7 7 7 7 7 7 6 5 5 5 5 4 3 3 4 4 4 5 5 5 5 5 5 5 7
5 10 13 14 13 13 15 18 15 13 10 8 3 9 12 11 9 8 9 9 9 9 9 9 9 8 7 6 6 6 5 5 6 5 4 3 2 1 0 2 2 3 4 4
5 6 11 12 13 12 15 12 10 10 8 5 3 11 14 12 10 10 10 11 11 11 12 12 11 11 10 10 9 9 8 8 8 8 8 7 6 5 4 3 3 1 2 2
2 4 6 12 10 12 7 4 3 4 4 5 10 14 15 16 14 13 13 13 14 13 13 12 11 12 11 11 11 11 11 11 10 10 9 9 8 8 6 6 5 5 4 3
4 4 7 11 10 10 5 5 5 2 1 7 15 18 19 18 17 14 14 14 14 14 13 12 13 13 12 12 11 11 11 11 11 10 9 8 8 7 7 7 6 5 5 4
9 10 10 10 9 7 2 2 3 4 1 6 15 18 19 17 11 11 13 15 15 14 12 12 13 13 12 11 11 11 11 11 10 9 8 7 6 6 6 6 5 4 4 4
10 12 14 13 8 1 4 3 4 3 3 7 13 15 15 10 12 15 16 15 14 14 13 13 12 11 10 10 10 11 10 9 8 7 7 6 5 4 4 4 3 4 3 3
5 6 7 5 3 1 3 0 1 2 3 7 13 15 16 20 21 18 17 15 14 13 13 12 11 10 9 8 9 9 8 7 6 6 5 5 5 5 5 4 3 3 4 4
2 3 3 2 2 3 2 3 1 1 6 10 15 20 22 21 20 18 16 14 13 12 11 10 10 9 8 7 7 7 6 4 4 4 3 3 3 2 2 3 4 4 3 3
2 3 0 1 2 2 2 1 1 5 9 12 18 20 21 21 19 17 14 13 11 10 9 8 8 8 7 6 6 5 4 4 4 4 4 3 3 2 2 2 3 3 3 3
1 1 2 2 2 1 2 2 4 8 11 16 18 19 20 20 18 16 13 11 10 8 7 7 6 6 6 5 5 5 5 5 5 5 5 6 5 3 3 3 3 3 2 2
1 1 3 2 1 3 5 7 9 12 15 17 18 19 18 17 17 15 12 10 8 8 7 6 5 5 4 4 4 4 4 4 5 6 6 6 6 5 4 4 4 4 4 3
Wind_Direction
251 248 258 274 285 300 307 307 313 311 286 290 302 252 130 145 165 154 153 156 164 169 156 149 149 150 142 139 141 145 145 147 150 148 153 150 150 163 136 127 124 118 97 85
256 254 260 276 294 292 292 299 306 298 294 287 286 245 120 138 194 160 157 158 164 161 162 160 154 155 152 150 149 151 152 154 159 151 152 150 144 165 132 114 128 136 133 150
247 260 265 272 281 289 297 304 307 309 303 297 285 210 141 158 182 166 161 160 163 166 165 166 167 166 162 159 161 163 160 158 161 159 163 152 139 185 141 141 155 157 149 124
257 267 270 273 278 288 299 309 311 310 312 327 321 267 157 187 180 171 163 161 161 164 163 167 169 170 171 165 163 157 154 157 162 171 176 171 178 185 158 159 150 159 167 168
258 259 262 265 274 288 300 310 306 319 339 344 315 296 153 180 176 171 162 161 158 162 165 169 172 174 175 168 164 158 155 160 166 181 185 187 192 180 156 152 143 166 171 187
266 271 273 275 279 282 290 296 295 321 358 303 270 270 158 165 164 159 153 151 153 158 162 166 172 171 174 170 164 159 158 166 172 188 188 201 213 185 155 161 156 186 172 184
254 260 263 264 266 269 280 289 294 307 214 241 251 254 121 119 123 136 143 147 154 159 164 166 172 175 174 169 167 164 166 173 180 189 191 196 208 202 192 198 184 205 186 181
250 249 249 252 258 270 273 278 293 311 307 297 307 344 106 103 106 122 137 146 155 163 166 170 174 174 175 175 174 171 172 178 183 189 191 193 196 205 207 213 212 207 222 177
255 260 255 243 244 252 269 277 289 282 286 300 95 23 90 98 116 130 140 151 160 165 168 170 171 174 178 180 179 176 172 177 184 189 187 194 198 214 222 197 208 218 208 164
247 262 263 251 249 249 255 281 294 296 306 311 72 74 291 281 197 155 152 153 159 164 169 170 172 175 176 178 177 174 171 177 185 190 191 196 201 209 220 223 213 219 205 186
237 251 259 255 242 256 264 259 269 285 293 300 304 155 192 208 209 181 152 149 159 166 172 172 173 174 174 176 175 176 173 179 188 194 196 204 193 202 208 215 223 220 212 193
235 242 253 256 258 266 273 272 263 258 271 283 304 118 182 204 180 160 147 147 157 166 169 167 166 167 171 174 175 175 177 186 191 196 195 201 202 202 205 209 213 214 209 204
255 238 244 246 242 324 290 270 266 263 262 271 287 144 128 21 42 99 120 134 143 152 149 145 153 162 168 171 175 177 181 189 193 195 197 197 200 205 209 213 211 210 209 210
287 249 242 252 223 169 240 260 260 254 254 259 272 147 141 92 73 84 108 119 123 127 121 126 128 136 151 159 164 171 184 190 190 190 191 194 199 205 209 212 213 211 209 211
279 254 243 246 214 193 220 238 244 241 251 261 213 156 148 150 157 134 110 102 100 102 100 100 103 110 113 118 124 127 128 125 138 140 157 174 188 199 209 215 218 216 217 221
299 276 268 251 229 213 224 224 222 226 236 247 185 123 126 130 120 113 106 102 93 86 80 78 74 74 74 79 89 93 87 79 78 78 70 63 72 82 237 249 242 230 228 234
310 308 274 261 252 240 238 236 228 227 228 234 169 132 126 117 113 106 98 96 94 86 75 72 71 67 62 58 58 64 64 65 63 57 49 41 41 38 36 15 358 330 280 257
251 302 287 258 246 246 253 265 280 251 193 133 119 127 121 111 97 87 89 92 88 85 82 78 74 68 63 62 66 67 66 62 62 57 49 42 38 33 32 34 19 9 358 345
185 196 252 256 241 243 249 11 359 358 230 129 123 119 117 114 105 91 90 92 90 86 82 78 76 72 64 60 62 65 64 64 62 56 50 45 42 38 32 30 21 17 8 353
210 212 222 242 239 237 188 33 346 40 312 117 128 134 137 144 126 116 108 102 97 92 87 84 80 75 70 64 64 67 62 58 54 49 46 42 37 40 39 27 14 6 356 345
217 220 224 232 236 97 68 174 180 180 146 120 132 141 150 144 116 122 115 106 101 96 90 85 81 75 70 68 68 68 65 58 52 47 41 34 23 22 44 28 1 346 343 330
293 251 235 243 246 83 2 343 151 119 119 122 123 125 117 111 115 118 115 112 108 102 96 90 84 78 71 68 72 71 62 54 49 45 38 25 14 6 16 1 341 323 314 311
332 347 350 13 78 62 30 67 355 114 96 104 113 117 120 121 122 121 118 114 107 102 99 98 96 91 83 75 71 72 65 52 47 37 21 360 339 324 337 334 324 320 329 339
352 342 9 46 39 23 13 54 84 86 94 109 116 122 123 122 122 120 114 109 105 101 98 96 95 95 90 82 74 71 57 33 22 12 349 316 295 300 331 318 312 329 339 345
167 263 227 127 125 106 350 46 71 91 101 107 112 116 118 120 118 115 111 109 104 98 92 88 86 88 90 83 70 59 48 24 2 346 334 320 318 327 308 289 291 295 291 279
98 53 67 90 183 133 112 102 105 101 101 105 108 109 111 113 114 112 107 103 101 98 91 85 80 77 81 85 81 69 50 22 355 342 338 331 330 336 330 322 319 301 282 248